Location: A�t �Alizem
(31.2076°N, 8.7872°W)
Time: 05:08:53
(UTC+00:00)

Meteor 1-26 Rocket - Pass Details

Date: 27 November 2020
Orbit: 807 x 928 km, 81.3° (Epoch: 26 January)

Event Time Altitude Azimuth Distance (km) Brightness Sun altitude
Rises 18:08:38 0° 174° (S) 3,529 7.6 -7.9°
Reaches altitude 10° 18:11:08 10° 170° (S) 2,602 6.9 -8.4°
Maximum altitude 18:16:57 56° 94° (E) 1,088 4.5 -9.6°
Drops below altitude 10° 18:22:50 10° 17° (NNE) 2,633 6.4 -10.8°
Sets 18:25:21 0° 14° (NNE) 3,576 7.1 -11.3°
